Погода в Александровске

Россия / Пермский край     59°09′46″N   57°35′04″E
темп.,
°C
ветер,
м/с
пор.,
м/с
влажн.,
%
обл.,
%
осадки,
мм/ч
давл.,
гПа
погр.,
м
22 января, сб
сб2223:00−10ююз3895100 0.1 1022272
02:00−11ю2695100 0.0 1024230
05:00−12ю2596100 0.0 1025142
08:00−15юв2298100 0.0 102635
11:00−14ююв239785 0.1 102760
14:00−10ю239295 0.0 1028205
17:00−14ююв119979 0.1 10299
20:00−18юв1199100 0.0 103110
23 января, вс
вс2323:00−19вюв119994 0.0 103210
02:00−19вюв2199100 0.0 103312
05:00−18вюв119999 0.0 103410
08:00−19вюв119997 0.0 103410
11:00−15юв129694 0.0 103556
14:00−9ю1389100 0.0 1035168
17:00−11ююв2197100 0.0 103616
20:00−11ююв2494100 0.0 103785
24 января, пн
пн2423:00−9ююв1594100 0.0 1037132
02:00−9ююв2596100 0.3 1037187
05:00−8ю2696100 1.1 1037281
08:00−8ююз2696100 0.4 1037252
11:00−8ююз2596100 1.0 1037261
14:00−6юз2494100 0.6 1037382
17:00−9ююз119882 0.8 103710
20:00−12ю1198100 0.1 103713
25 января, вт
вт2523:00−14ю1198100 0.4 103614
02:00−15ю1199100 0.2 103516
05:00−17ю2299100 0.3 103541
08:00−18ю24100100 0.1 103464
11:00−16ю249899 0.1 1033133
14:00−12ююз2490100 0.0 1032233
17:00−11ю2495100 0.0 1031188
20:00−12ю2597100 0.0 103194
26 января, ср
ср2623:00−15ююв2399100 0.0 103151
02:00−14ююв2597100 0.1 103092
05:00−17ююв229957 0.1 103133
08:00−19ююв239965 0.0 103046
11:00−17ююв2596100 0.0 1030109
14:00−11ююз2487100 0.0 1029256
17:00−15юв119789 0.0 10309
20:00−17юв229791 0.0 103035